Погода в Зилани

Погода в Зилани : погода сейчас, прогноз погоды и архив. Всё, что Вы хотите узнать о погоде в Зилани!

Поиск расширенной информации на нашем сайте:

Другие новости

Новости СМИ2

Главная страница сайта

Новости сайта

03.07.2017

Напоминаем, что на нашем специализированном сайте Метеоцентр.Азия вы можете получить высокодетализированные автоматические прогнозы погоды по пунктам России, СНГ и мира в авиационном формате (включающие направление и скорость ветра, видимость, явления погоды, количество и форму облачности, нижнюю и верхнюю границу облачности).


Погода в Зилани - сегодня

Время (UTC), дата Ветер
(°,м/с) 
Видим.   Явления Облачность Т
(°С)
Тd
(°С)
f(%) Тe
(°С)
Pmin
(гПа)
dP
(гПа)
Po
(мм)
O2
(г/м3)
Тmin Tmax R s Состояние
почвы
18 06.02.18 140 (ЮВ) 1-2  н/о    н/о 
-8.1 -9 93 -8  1014  0.5  750  312           
21 06.02.18 200 (Ю) 4-6  н/о    н/о 
-5.4 -6.5 92 -9  1014.3  0.5  750  309           
00 07.02.18 210 (ЮЗ) 4-6  н/о    н/о 
-4.8 -5.9 92 -8  1015.7  1.4  752  309           
03 07.02.18 220 (ЮЗ) 4-7  н/о    н/о 
-3.8 -5.6 87 -7  1016.6  752  308           
06 07.02.18 220 (ЮЗ) 3-6  н/о    н/о 
-3.7 -5.5 87 -6  1017.9  1.3  753  308           
09 07.02.18 210 (ЮЗ) 4-10  н/о    н/о 
-3.7 -6.2 83 -7  1019.8  1.8  755  309           
12 07.02.18 210 (ЮЗ) 4-8  н/о    н/о 
-3 -6.9 74 -6  1020.7  0.9  755  308           
15 07.02.18 200 (Ю) 3-6  н/о    н/о 
-3.4 -8 70 -6  1021.9  1.2  756  309           
18 07.02.18 180 (Ю) 2-3  н/о    н/о 
-6.1 -10.9 69 -8  1023  757  313           
21 07.02.18 150 (ЮВ) 1-4  н/о    н/о 
-9.7 -12.5 80 -10  1023.9  0.7  757  318           
00 08.02.18 140 (ЮВ) 2-4  н/о    н/о 
-11 -12.8 87 -13  1023.9  0.1  757  319           
03 08.02.18 160 (Ю) 1-3  н/о    н/о 
-10 -10.7 95 -10  1023.7  -0.2  757  318           
06 08.02.18 180 (Ю) 1-1  н/о    н/о 
-8.2 -9 94 -8  1023.2  -0.4  757  315           
09 08.02.18 110 (В) 2-3  н/о    н/о 
-6.1 -7.2 92 -8  1022.7  -0.4  757  313           
15 08.02.18 050 (СВ) 1-2  н/о    н/о 
-5.2 -7.1 86 -5  1021.8  -0.2  756  311           
18 08.02.18 030 (СВ) 1-2  н/о    н/о 
-5.4 -6.7 91 -5  1021.7  0.1  756  311           
21 08.02.18 030 (СВ) 1-2  н/о    н/о 
-5.9 -7.1 91 -6  1021.8  0.1  756  312           
00 09.02.18 000 (С) 2-3  н/о    н/о 
-5.9 -6.9 93 -7  1022  0.2  756  312           
03 09.02.18 330 (СЗ) 2-3  н/о    н/о 
-6.6 -7.1 96 -8  1022.1  0.1  756  313           
06 09.02.18 010 (С) 1-3  н/о    н/о 
-7.5 -8 96 -7  1022.5  0.3  756  314           
09 09.02.18 000 (С) 2-3  н/о    н/о 
-7.4 -7.9 96 -9  1022.8  0.3  757  314           
12 09.02.18 000 (С) 2-3  н/о    н/о 
-6.8 -7.4 95 -8  1022.4  -0.4  756  313           
15 09.02.18 020 (С) 2-4  н/о    н/о 
-7.3 -7.9 95 -9  1022.3  -0.1  756  314           
18 09.02.18 020 (С) 2-4  н/о    н/о 
-7.9 -8.6 95 -9  1022.5  0.1  756  315           
09 22.02.18 040 (СВ) 1-1  н/о    н/о 
-13.5 -15.8 83 -13  1032.3  0.7  763  325           
Время (UTC), дата Ветер
(°,м/с) 
Видим.   Явления Облачность Т
(°С)
Тd
(°С)
f(%) Тe
(°С)
Pmin
(гПа)
dP
(гПа)
Po
(мм)
O2
(г/м3)
Тmin Tmax R s Состояние
почвы

Для получения пояснительной информации подведите курсор к названию столбца.

ПОГОДА в Зилани - архив

Всё, что Вы хотите узнать о погоде в Зилани - удобно и подробно!

Выберите нужную дату (начиная с 1 января 2015* года) и нажмите кнопку "Найти".
Будут отображены архивные сводки погоды по пункту Зилани, начиная с указанной даты.


Отображать данные в формате CSV (для использования в таблицах Excel)


Внимание! Наш архив погоды предназначен исключительно для личного некоммерческого использования в познавательных целях. Если Вам необходимы официальные справки о состоянии погоды (для производственных, юридических, коммерческих и т.п. целей), обращайтесь в органы Росгидромета.

*Примечание: данная дата относится к архиву по метеостанциям СССР (Россия, СНГ, Балтия).
Архив по метеостанциям Зарубежной Европы и Азии (кроме Китая) хранится 10 дней, по другим регионам земного шара (Китай, Африка, Америка, Австралия, Океания) - 1 день.

Зилани - район местоположения метеостанции


Название, широта, долгота, высота метеостанции:
Зилани 56.5°ш. 25.9°д. 109 м над ур. моря [Латвия]

Дополнительная информация

В oтличие oт бoльшинства пoгoдных сайтoв мы публикуем пoдрoбную метеoинфoрмацию в детальнoм прoфессиoнальнoм фoрмате.

Характеристики температуры и влажнoсти вoздуха измеряются на высoте 2 м в тени вдали oт зданий и деревьев.
Скoрoсть ветра измеряется на высoте 10 м (на урoвне рoста челoвека скoрoсть ветра ниже в 1.5-2 раза). Если метеoстанция нахoдится в гoрoде или в лесу, тo скoрoсть ветра занижена на 2-4 м/с пo сравнению с oткрытым местoм. Скoрoсть ветра над акватoриями крупных рек и oзёр, а также на вершинах хoлмoв на 2-5 м/с выше, чем в oбычных услoвиях.
Атмoсфернoе давление в разных тoчках местнoсти мoжет значительнo oтличаться oт давления на метеoстанции, в зависимoсти oт услoвий рельефа (при пoдъёме на 10 м давление пoнижается примернo на 1 мм рт.ст.).